Theta_e
334 336 337 338 340 341 341 341 342 345 345 345 345 345 345 346 347 345 346 346 346 344 345 346 345 345 344 344 343 345 346 347 348 347 346 344 347 351 354 354 358 360 363 358 355 362 361 358 359 359 361 359 355 351 352 353 360 352 353 352 353 344 344 345 343 344 338 336 338 336 339 340 352 340 336 337 339 339 339 338 336 339 339 341 347
335 334 336 337 338 339 340 341 345 341 343 344 344 344 346 347 347 345 345 345 346 345 346 346 346 345 344 344 344 344 344 346 345 346 346 345 347 351 353 353 356 355 362 357 360 358 354 355 358 360 357 359 361 364 363 369 350 347 349 342 349 347 342 347 347 339 337 336 332 334 338 338 347 341 339 340 341 341 341 339 341 338 338 340 341
333 333 336 336 337 339 340 341 342 342 343 344 344 345 345 346 346 346 345 345 346 348 348 345 346 348 345 344 344 343 346 347 346 348 349 344 347 350 352 352 353 354 360 362 355 357 354 361 359 359 360 366 349 353 355 349 350 352 351 346 344 343 350 355 349 342 336 344 341 335 332 330 336 337 340 339 343 343 341 340 343 336 338 338 343
331 332 334 336 336 338 340 340 341 342 343 343 344 344 345 347 346 346 345 346 347 349 351 347 349 349 346 345 345 344 344 347 349 350 346 345 347 349 350 352 352 354 357 359 357 354 357 359 357 356 357 364 356 355 354 355 353 351 347 356 344 339 340 343 357 351 348 337 332 333 332 334 325 329 335 337 342 342 342 342 342 341 338 339 345
330 332 334 335 336 338 340 341 342 341 342 343 344 345 346 346 346 346 346 346 348 352 350 348 351 348 347 348 346 344 347 346 345 342 343 347 347 346 348 351 352 354 354 355 359 354 356 357 355 358 360 360 359 356 354 352 352 353 350 350 346 339 340 345 349 356 351 347 341 335 329 327 328 331 335 332 341 339 342 343 346 340 340 341 337
331 333 334 336 337 339 340 341 341 341 342 344 345 346 346 346 346 346 346 347 348 350 349 349 350 346 346 343 341 340 338 339 339 337 340 344 344 346 351 352 353 352 352 354 354 359 356 358 358 359 360 357 362 358 356 356 355 352 349 347 349 347 344 344 344 352 354 358 351 336 334 328 331 336 331 326 337 344 345 341 341 340 341 342 341
332 334 335 336 336 339 340 340 341 341 343 345 346 346 346 346 346 346 346 347 349 349 348 351 347 346 347 343 341 340 338 339 341 341 342 344 343 346 350 350 351 352 352 352 353 359 356 356 358 359 361 358 364 357 354 353 351 349 354 353 354 359 347 342 345 348 347 351 351 349 351 352 344 334 329 333 328 332 337 339 342 341 342 343 343
332 333 335 336 337 339 340 341 341 342 344 345 345 346 346 345 346 346 347 349 348 349 347 350 347 346 345 342 342 340 339 339 342 342 343 344 341 347 349 348 349 350 350 350 352 357 358 355 357 357 357 359 361 357 354 354 355 357 358 356 357 354 349 345 346 349 343 344 353 349 350 350 348 341 338 334 331 328 331 338 342 342 343 343 343
333 333 334 336 337 339 341 341 342 343 344 345 345 346 346 346 347 347 346 348 348 349 347 349 350 347 346 342 342 344 341 342 346 348 343 347 339 343 347 347 347 347 348 350 353 357 363 357 358 357 357 355 363 362 356 355 352 352 355 354 353 354 353 351 349 348 346 346 343 344 347 349 345 344 341 337 332 330 329 334 334 341 342 343 343
333 334 336 337 338 339 341 342 342 343 345 346 346 347 346 346 346 346 346 347 348 348 349 349 350 350 344 342 341 342 346 344 345 343 341 343 339 340 344 345 346 345 346 348 355 358 360 360 358 357 356 355 361 357 354 354 356 356 353 352 356 357 358 355 351 350 351 350 347 344 341 342 339 340 339 339 339 337 332 333 336 337 336 340 343
332 333 336 337 339 339 340 341 341 343 344 345 346 346 346 346 346 345 346 347 348 348 348 348 348 348 344 342 342 342 343 343 342 341 340 341 338 338 340 342 344 343 344 349 354 357 357 360 358 356 356 361 361 357 354 354 356 355 357 358 358 355 354 355 357 355 351 349 349 345 343 342 338 338 335 338 338 336 335 335 336 339 340 339 342
332 333 335 336 338 338 339 340 340 341 343 344 345 346 346 345 346 345 346 346 347 349 349 347 347 347 346 343 342 343 342 343 340 339 340 339 338 338 340 341 342 342 345 348 351 355 357 356 359 357 357 355 353 354 355 355 356 355 358 354 355 355 355 358 352 350 352 350 349 348 343 343 344 342 343 342 339 339 338 335 337 339 341 341 346
332 333 335 336 337 337 337 338 338 338 342 344 345 346 346 345 345 344 345 346 347 348 348 347 346 346 346 344 343 345 345 343 340 339 342 338 341 339 341 341 340 340 343 347 350 352 355 353 352 351 352 355 355 353 356 358 355 356 354 357 356 355 354 353 352 354 353 349 350 348 350 346 344 344 343 344 344 342 343 338 341 343 338 339 343
333 335 335 336 337 337 337 337 337 338 343 344 345 346 346 346 345 344 345 346 347 347 347 347 347 347 347 346 345 347 346 346 341 342 345 341 343 342 343 343 341 340 343 347 349 351 353 354 354 351 351 354 357 354 357 359 359 357 356 353 356 358 357 355 354 352 349 352 350 348 348 348 347 348 347 346 345 345 341 340 338 338 341 340 342
334 335 336 341 339 337 337 337 337 338 343 344 345 345 346 345 345 345 345 345 346 347 347 347 347 348 348 348 348 346 345 347 343 346 346 344 346 346 345 345 343 343 347 348 350 350 350 351 352 351 351 355 359 359 362 359 361 361 359 358 359 360 356 354 353 350 353 351 353 351 352 352 351 351 351 350 349 346 342 342 339 336 335 335 340
334 334 335 338 340 340 338 337 337 337 342 343 345 345 345 345 345 345 346 345 346 348 347 347 348 349 348 347 348 348 349 347 346 350 348 346 347 347 346 347 347 346 348 349 349 350 349 350 352 352 352 356 357 357 357 356 355 354 356 355 354 357 353 352 352 353 354 355 352 353 352 351 351 351 352 352 350 349 349 345 343 337 332 330 333
335 333 335 337 338 341 339 340 339 340 342 343 344 345 345 345 345 345 347 346 346 348 348 348 348 348 348 347 347 347 346 346 344 345 347 347 346 346 347 347 348 348 348 351 348 348 348 349 350 351 351 356 355 357 357 356 356 354 353 352 352 351 351 349 352 349 349 352 351 351 350 350 351 353 353 350 351 349 351 350 347 340 336 332 331
334 334 336 336 338 341 341 342 341 340 342 343 344 345 346 347 346 346 348 346 346 347 348 349 348 348 348 347 347 347 347 347 345 346 346 346 345 345 345 346 347 349 349 349 350 348 347 357 350 350 351 356 356 357 356 355 357 356 355 355 353 351 350 352 355 355 352 352 357 356 353 353 356 354 350 351 350 349 350 352 353 350 344 339 336
333 333 335 340 340 341 339 340 343 345 343 343 345 346 347 347 347 347 348 348 347 348 349 350 349 349 349 348 347 347 347 347 346 347 347 346 345 345 344 345 347 348 351 350 350 348 348 352 350 349 351 356 356 356 356 355 356 355 356 354 352 349 349 349 352 357 357 358 355 354 352 351 351 350 349 349 350 351 349 350 349 350 351 345 343
333 333 337 340 341 341 340 340 340 339 343 345 345 345 347 348 348 347 348 350 349 348 350 349 349 349 349 348 347 347 347 346 345 345 344 345 345 345 345 345 345 348 349 350 350 348 350 352 350 350 351 354 354 355 356 354 357 356 355 353 353 350 347 348 352 353 356 356 354 351 349 349 349 348 349 351 351 353 352 351 351 350 349 347 344
333 334 337 340 341 341 342 342 342 343 342 343 343 345 347 349 348 348 347 349 349 349 349 349 350 349 349 347 346 346 346 346 345 343 343 342 343 346 345 346 346 346 348 351 349 348 352 353 351 353 352 352 353 353 356 356 357 355 354 352 352 351 349 349 352 350 353 354 352 348 346 348 350 349 350 350 352 352 351 350 351 351 349 347 344
335 335 338 340 340 341 341 343 343 342 341 341 342 343 347 348 349 348 348 350 349 349 349 349 349 349 348 347 346 346 346 345 345 344 343 342 342 343 344 345 345 346 348 349 349 349 352 352 352 353 353 352 353 352 356 357 358 355 354 355 353 351 349 350 348 346 349 353 347 345 346 349 350 350 351 350 350 351 352 351 352 350 346 344 348
336 337 337 338 340 340 340 342 341 341 342 343 345 347 345 347 349 349 347 349 351 351 350 349 349 348 347 347 346 346 346 345 344 344 343 343 343 343 345 345 345 346 349 349 349 349 350 351 351 352 351 352 352 352 356 357 358 355 354 353 353 352 350 349 347 346 348 347 346 345 346 349 353 349 350 350 351 350 350 349 350 349 346 345 345
336 335 337 336 339 340 339 341 341 341 342 343 343 342 344 345 348 349 347 348 350 351 351 349 348 347 347 346 346 346 345 345 344 344 343 343 344 343 345 345 345 346 348 349 349 349 349 350 350 352 351 351 352 353 355 356 358 357 355 354 352 352 351 350 348 349 348 346 344 344 345 347 349 347 347 348 348 348 347 349 348 346 344 342 343
335 337 339 339 339 339 339 340 340 341 341 342 341 340 342 346 347 348 348 348 349 350 349 348 347 346 345 345 345 345 345 344 344 344 344 343 343 343 344 345 346 346 348 349 350 349 348 350 351 351 352 352 353 354 355 355 357 359 358 355 353 352 351 350 350 349 351 346 346 344 346 347 347 346 346 346 346 345 347 346 346 346 343 343 344
331 334 339 339 340 340 340 341 341 341 341 342 343 342 343 347 348 348 348 349 349 349 348 347 346 345 344 344 344 344 344 344 344 344 344 344 344 343 344 345 347 346 347 348 349 350 350 349 350 351 352 353 354 356 355 356 358 359 358 355 354 352 352 351 349 348 346 346 346 345 347 347 346 346 345 345 344 343 344 344 344 345 346 345 345
331 337 340 339 341 340 341 342 342 342 341 341 343 344 345 347 349 349 348 346 348 349 348 347 346 345 344 343 344 344 344 344 345 345 345 345 344 344 343 345 347 347 346 347 348 348 350 349 350 350 351 353 355 356 355 355 357 359 357 354 354 353 350 348 347 347 346 345 345 346 347 347 347 345 344 343 342 342 343 341 342 342 345 347 344
336 339 341 342 342 341 340 341 342 342 342 341 342 344 345 346 348 347 346 344 346 347 347 346 344 342 342 344 345 345 345 345 345 345 345 345 345 343 343 345 347 346 345 345 346 346 347 349 349 349 352 354 354 355 354 354 357 359 357 355 353 350 348 346 346 346 347 346 347 348 347 346 345 344 343 342 341 339 339 339 339 341 343 345 341
338 340 341 340 340 341 341 342 342 343 343 342 343 345 346 346 345 344 345 347 348 347 346 346 345 343 343 345 347 345 344 345 347 345 345 344 344 343 342 343 346 346 346 345 347 347 347 348 348 349 351 353 353 354 355 355 358 357 355 353 351 349 347 346 346 347 348 349 348 348 348 348 352 352 351 349 348 345 339 336 336 336 338 337 335
338 339 339 339 339 338 339 340 340 343 343 344 344 345 345 346 344 343 345 347 347 346 346 347 346 345 345 345 350 350 345 343 344 345 344 344 343 343 342 340 344 345 345 344 344 347 347 345 349 350 352 353 353 355 360 361 360 356 353 352 351 347 346 346 347 347 348 349 350 351 353 354 352 350 349 348 346 344 342 340 335 333 333 331 330
335 335 337 337 337 337 337 337 339 340 340 341 342 342 345 346 343 343 343 345 347 346 346 346 346 348 348 347 350 355 350 345 344 344 344 343 342 343 343 343 341 343 344 344 343 344 344 347 350 352 352 352 351 354 359 347 349 355 353 351 349 347 346 346 347 348 348 347 346 346 345 347 345 345 343 344 342 344 344 343 341 339 336 330 326
332 332 332 332 334 334 335 336 337 340 341 341 341 341 340 339 340 341 342 345 345 345 345 346 346 347 348 348 350 353 351 348 349 348 348 347 345 347 346 346 344 341 342 343 341 342 346 350 352 352 350 347 346 352 342 344 347 347 355 351 349 348 347 347 347 347 345 342 340 340 340 340 339 338 336 336 339 340 338 338 338 337 336 334 332
331 331 333 333 334 335 336 337 338 339 339 337 337 336 336 337 338 340 344 342 342 344 344 345 347 347 348 349 350 352 349 346 343 344 345 343 345 346 348 347 347 346 344 342 343 347 350 351 350 347 344 343 342 340 338 342 343 343 347 353 349 348 347 345 345 343 341 340 340 339 337 336 337 339 336 332 331 331 334 333 332 331 329 327 322
333 333 335 335 336 336 338 341 341 340 338 339 341 339 340 342 340 340 340 340 340 340 339 340 342 345 345 345 347 348 345 344 344 344 345 344 346 344 344 346 349 349 346 346 348 349 349 347 346 344 341 340 339 340 336 339 339 339 343 350 348 347 346 345 344 342 341 339 337 335 331 329 329 328 327 324 323 322 322 322 322 321 322 325 327
334 334 336 336 336 337 338 337 336 338 339 340 338 341 340 340 340 340 339 337 338 338 339 339 340 340 341 343 344 342 342 344 344 345 344 345 345 343 342 345 347 347 347 347 347 345 345 345 344 341 339 339 340 335 333 335 334 335 339 348 346 345 344 344 343 341 338 336 333 332 329 326 325 324 325 323 321 321 320 319 318 318 318 317 316
336 336 337 336 337 337 337 334 336 336 336 337 338 341 341 338 340 338 339 337 336 336 336 337 339 339 339 342 343 341 343 344 343 344 343 343 343 344 343 342 343 342 345 347 346 345 343 341 340 340 340 338 339 330 332 332 331 333 340 344 342 341 340 338 336 335 333 332 331 328 326 325 325 326 328 328 326 322 319 319 319 320 321 322 323
339 340 340 339 340 339 337 336 335 336 336 337 338 339 340 340 338 337 337 336 336 334 334 334 337 337 340 341 343 339 339 342 343 343 343 343 342 341 342 343 343 343 344 345 344 343 341 340 340 339 338 336 336 330 327 327 328 331 336 339 339 337 336 335 334 334 333 331 329 327 326 326 326 326 330 325 327 326 319 319 318 318 319 319 320
341 341 342 341 340 339 339 337 335 335 335 335 337 339 336 337 338 339 339 338 338 337 337 336 335 337 341 343 343 341 340 341 341 341 342 343 343 343 342 344 341 342 344 343 341 340 339 340 340 338 337 336 334 330 324 323 326 329 338 337 336 335 334 333 333 334 332 331 331 333 332 328 327 327 327 325 328 326 320 320 319 318 318 318 319
340 341 340 340 338 339 339 338 337 335 337 337 338 337 335 335 336 337 340 340 340 340 339 338 339 342 343 343 342 341 340 340 340 341 342 341 342 342 340 340 339 339 340 341 341 338 338 339 339 338 340 336 333 328 321 322 323 326 334 335 334 332 330 329 328 326 327 329 332 335 335 332 330 327 321 324 327 328 324 323 322 320 319 319 319
340 340 339 338 340 338 334 334 334 335 337 337 337 335 338 335 335 337 339 338 338 339 339 341 342 342 343 342 341 341 340 338 338 339 340 340 340 339 339 339 340 340 339 338 338 337 336 336 337 337 338 335 333 331 327 319 321 323 328 335 332 330 327 325 324 323 321 321 321 322 323 319 316 315 314 314 316 320 322 321 320 319 317 314 315
338 340 343 337 336 335 334 334 333 334 337 336 336 333 334 336 337 339 339 338 338 338 338 338 339 339 339 339 338 337 336 335 335 335 337 338 339 339 339 340 340 339 339 338 337 336 336 335 334 334 334 333 333 330 326 318 318 321 325 330 330 329 326 325 323 322 319 318 318 319 318 316 312 312 311 311 312 316 323 322 321 320 320 322 321
344 343 338 336 336 335 334 334 335 335 337 336 335 334 333 336 339 338 338 338 336 335 334 334 335 335 336 336 335 335 334 334 334 333 332 332 334 336 337 335 336 336 336 336 335 335 334 333 332 332 333 332 334 332 326 319 318 318 321 325 328 328 326 322 320 318 317 317 316 317 317 315 311 311 310 309 310 313 318 322 318 314 315 319 318
335 337 339 337 334 334 334 333 335 337 337 335 334 334 335 339 337 337 338 337 336 335 333 333 334 335 335 334 334 334 333 333 333 333 332 331 331 331 332 332 330 329 328 327 327 329 330 329 329 330 330 330 330 330 325 325 317 316 316 319 320 323 321 323 318 316 315 315 316 316 318 316 309 307 307 308 310 312 318 313 311 313 316 320 321
337 338 337 337 333 333 331 331 334 335 334 335 334 337 338 336 333 336 338 338 336 335 334 334 334 333 333 333 333 333 333 333 333 332 331 330 330 330 330 330 329 329 327 326 326 327 326 327 327 327 328 328 328 327 324 323 320 315 314 313 315 316 318 320 318 315 315 315 315 315 314 307 305 304 306 309 311 316 314 309 312 315 318 319 315
336 337 339 335 332 331 331 331 332 333 333 333 336 339 338 334 334 338 337 336 335 335 334 334 334 333 333 332 332 332 332 333 332 332 330 330 330 330 329 329 329 328 327 326 326 327 326 325 325 325 324 325 325 325 323 321 317 315 313 312 313 313 313 313 317 317 318 316 313 307 305 306 306 306 308 310 312 313 311 311 313 317 319 312 313
337 335 335 333 332 331 331 331 332 334 334 336 337 338 335 334 337 339 337 335 334 334 333 333 332 332 331 331 331 331 332 332 332 331 331 331 331 331 329 329 328 327 327 326 325 325 325 324 324 323 323 323 323 322 322 322 322 320 316 313 313 314 317 318 319 317 316 312 309 308 308 310 313 315 316 316 317 318 319 319 319 318 310 311 310
333 335 336 332 332 331 330 331 331 333 335 337 337 337 336 336 336 337 336 334 333 333 333 333 332 331 331 330 330 330 331 332 332 332 331 331 330 330 329 329 327 327 326 326 326 325 325 324 323 323 323 323 323 322 322 321 320 318 317 317 316 316 316 316 318 315 315 312 315 317 316 315 316 320 322 320 318 317 315 312 311 313 314 312 311
335 335 333 332 331 331 331 331 331 331 335 337 338 337 337 337 337 337 335 334 333 333 332 332 331 331 330 330 330 333 328 324 323 326 330 330 329 329 328 328 327 327 326 325 325 325 324 324 323 323 322 322 321 321 320 318 318 318 317 316 316 316 313 312 311 311 312 317 317 321 318 319 316 312 310 310 310 311 312 310 307 307 309 315 318
333 332 332 331 331 332 331 331 331 331 333 336 335 336 338 337 337 336 335 334 333 334 332 331 331 331 330 329 327 325 322 319 316 313 309 308 312 323 324 322 323 324 328 327 326 326 326 325 324 323 322 320 320 319 319 317 320 315 317 314 312 310 310 311 315 314 318 318 317 317 316 312 310 310 309 307 306 307 308 308 307 306 307 307 307
333 333 332 332 332 332 332 331 330 330 332 332 332 333 335 337 337 336 334 333 334 332 330 329 328 326 325 325 323 322 321 320 317 315 313 312 308 301 306 323 323 323 321 319 319 325 326 325 323 323 323 321 319 320 314 307 305 304 305 306 307 306 307 312 315 315 319 314 315 314 314 312 309 308 307 307 306 306 306 306 308 311 309 307 307
333 332 331 331 331 332 332 331 330 331 331 332 331 332 334 337 338 337 335 333 330 328 326 325 326 324 324 324 322 321 320 319 318 317 317 317 315 313 300 299 309 317 311 306 307 309 314 319 325 321 317 313 312 307 303 302 301 300 300 300 300 301 303 305 309 317 315 313 313 314 315 314 311 308 308 307 308 307 307 306 305 306 307 309 309
Wind_Speed
10 12 13 12 14 12 10 9 9 10 10 10 10 10 11 10 9 9 7 8 7 6 6 6 5 4 2 4 4 4 3 2 2 3 4 4 4 4 5 4 3 2 0 0 2 3 1 2 3 3 3 4 3 1 2 3 2 2 3 2 3 5 4 4 3 4 6 4 4 5 5 4 2 4 3 4 4 4 3 1 5 6 7 7 8
10 7 11 11 11 11 10 9 9 12 9 10 10 11 10 10 11 9 7 7 7 8 7 6 5 6 5 5 4 5 4 3 4 4 5 5 4 4 4 4 4 3 1 1 0 1 2 2 2 2 3 3 2 1 1 2 3 4 4 4 2 3 3 3 6 2 4 2 2 4 6 6 3 3 5 5 4 4 3 3 2 3 5 6 6
10 8 12 11 11 10 10 9 9 12 12 11 9 9 10 10 8 8 8 8 7 8 7 7 5 4 5 4 6 3 3 4 3 4 4 5 5 5 5 5 4 3 3 1 0 0 0 1 1 1 2 2 2 3 3 3 3 3 3 1 4 2 1 2 5 3 1 2 2 3 2 3 5 6 3 4 4 4 3 3 4 2 2 4 2
10 10 12 12 11 10 9 10 9 9 10 9 9 9 8 8 8 8 8 7 7 7 7 6 6 5 4 5 5 5 3 3 4 5 4 4 6 6 4 4 4 4 3 3 1 0 0 1 1 2 1 1 1 1 3 3 3 4 3 0 1 3 4 2 2 4 2 2 2 1 1 1 1 2 3 6 2 4 3 4 3 2 2 2 1
10 11 11 12 11 11 11 11 10 10 10 11 10 9 7 9 8 9 8 8 7 7 7 6 6 5 5 3 4 3 1 4 5 4 5 6 5 4 6 4 5 4 4 3 3 1 0 2 2 1 1 0 1 1 2 3 3 3 3 1 0 1 2 2 3 4 4 0 4 1 2 2 1 4 2 5 4 6 5 6 4 3 3 4 4
10 13 12 14 12 11 11 12 12 10 11 11 10 10 8 8 8 7 6 7 8 8 7 6 7 7 6 6 6 5 5 4 6 5 4 6 7 6 4 5 6 4 4 4 3 1 2 2 2 0 0 1 0 1 2 2 3 3 3 2 0 1 2 4 3 4 3 2 1 1 5 1 1 2 1 3 5 1 4 6 4 4 4 5 4
9 11 10 13 12 13 13 13 12 11 11 10 10 9 10 9 8 8 7 7 7 7 8 6 5 6 6 6 6 6 6 4 3 4 7 7 5 6 6 5 5 5 4 4 3 2 3 3 2 1 0 1 1 1 3 3 2 2 1 3 2 2 3 3 3 3 5 2 4 2 2 1 2 1 1 0 5 6 6 4 3 5 3 4 4
11 11 11 13 13 15 15 14 12 12 12 11 11 9 11 10 9 8 7 7 6 7 8 7 7 6 5 4 4 6 6 6 5 4 5 5 7 7 6 5 5 4 4 4 3 3 3 3 2 2 1 1 1 3 3 2 2 1 1 4 2 2 3 3 0 2 2 3 2 3 2 0 1 2 3 1 2 2 5 5 1 3 4 4 4
12 11 12 13 13 14 15 14 13 13 12 12 12 11 11 10 9 8 8 7 6 7 8 7 6 6 6 4 3 3 5 5 4 3 6 5 7 5 6 6 5 4 4 4 4 4 4 4 3 3 2 3 2 3 2 2 3 4 2 3 3 2 3 3 2 0 1 1 2 2 3 3 2 0 0 2 2 1 4 1 3 4 3 3 4
10 12 13 12 13 13 14 14 14 13 13 12 11 11 11 10 10 9 8 8 6 7 8 7 6 5 5 4 4 4 3 3 2 4 4 4 6 6 6 6 6 5 4 4 4 4 4 4 3 3 3 3 3 3 2 1 1 4 4 4 3 2 2 3 2 2 1 0 0 1 1 2 3 1 1 1 1 0 1 2 2 2 3 4 3
10 10 13 12 12 13 12 15 14 14 12 12 11 12 11 11 11 11 10 8 7 8 8 8 7 6 6 6 5 4 4 3 3 3 3 4 6 6 6 6 5 6 5 4 5 5 4 4 4 4 4 3 3 2 2 2 2 3 2 1 3 4 3 2 1 1 2 2 2 1 1 2 2 0 1 1 1 1 1 2 2 2 0 2 3
9 9 12 12 11 12 11 13 12 13 13 13 12 11 12 12 11 11 10 9 8 8 8 8 7 7 6 7 6 5 4 4 4 5 4 6 6 6 6 5 5 5 4 5 5 5 5 4 4 4 4 4 5 4 3 1 2 2 2 3 3 2 2 1 0 0 2 2 1 0 2 3 1 1 2 3 3 1 2 2 2 2 2 0 2
7 10 11 11 12 12 12 12 9 12 12 14 14 12 11 12 13 12 11 10 9 10 9 8 7 7 7 7 7 6 5 5 4 5 4 6 5 6 5 6 5 4 4 5 5 6 5 5 5 5 5 4 5 4 3 2 2 1 1 1 3 3 4 2 1 1 1 1 1 1 1 2 2 3 3 3 4 2 2 1 2 0 1 1 1
5 6 2 11 11 11 11 11 9 11 13 14 14 12 11 11 12 13 12 11 9 10 10 8 8 8 7 7 7 6 6 5 5 5 5 5 6 6 7 7 6 7 5 5 6 6 5 6 6 6 5 4 4 4 4 2 2 2 1 1 1 3 1 2 2 2 1 1 2 3 2 3 3 3 3 3 3 2 2 3 2 1 1 0 2
10 8 5 10 5 11 10 11 9 10 13 13 13 12 12 11 12 12 10 10 10 11 10 10 8 8 7 7 6 6 6 6 5 5 6 5 6 6 6 6 7 7 6 6 5 5 5 5 5 5 5 4 4 4 3 3 2 1 1 1 0 2 3 3 3 2 0 1 0 1 1 2 4 3 2 2 2 3 3 2 2 0 1 2 1
13 12 10 9 9 8 8 8 7 9 13 11 13 12 12 12 13 13 13 12 12 10 10 10 9 8 7 7 7 6 5 5 5 5 5 6 7 7 6 6 6 6 5 5 6 6 5 5 5 5 4 4 4 4 4 3 3 2 1 1 2 2 4 3 3 2 2 0 1 1 1 4 3 4 3 3 2 1 2 2 3 3 3 2 2
11 12 11 9 9 10 7 7 7 9 12 12 12 13 13 13 12 12 12 11 11 11 11 10 9 8 8 8 7 6 7 7 7 6 6 6 6 6 6 6 5 5 5 5 5 5 5 5 6 6 5 5 5 4 4 4 3 3 3 2 3 2 3 4 3 2 2 1 2 2 3 4 3 2 2 3 2 2 2 2 4 4 5 2 1
11 14 13 15 12 8 9 10 5 9 13 11 13 12 12 13 14 14 12 13 12 12 11 10 10 9 8 8 9 8 7 7 6 6 6 6 5 5 4 5 5 5 6 5 5 6 6 6 6 7 6 5 6 5 4 4 3 3 3 3 4 3 3 1 0 0 0 2 2 2 3 2 2 4 4 2 2 1 1 1 0 1 4 3 3
8 10 10 10 10 8 10 11 9 6 7 11 13 12 11 11 13 14 15 15 15 12 11 9 9 8 8 9 10 8 7 7 6 6 6 7 7 6 6 6 5 6 6 5 5 6 6 6 6 6 6 6 6 6 5 4 4 4 3 4 3 3 4 3 1 1 1 1 2 2 2 3 3 3 3 3 2 2 1 2 3 2 2 1 4
8 8 8 9 9 10 10 10 11 10 3 2 8 10 13 13 13 13 13 11 11 12 11 11 11 9 9 8 8 7 6 7 6 6 7 8 7 7 7 7 7 6 7 7 7 7 7 7 7 7 7 6 6 5 5 5 4 4 4 4 4 3 3 3 2 1 1 1 1 2 3 3 3 3 4 3 3 2 2 2 2 2 3 2 3
9 8 8 9 8 8 10 9 9 12 12 10 10 11 13 12 13 13 14 13 13 13 12 11 10 11 10 10 10 8 8 7 7 7 7 7 7 7 7 7 6 7 7 7 7 7 8 8 7 7 7 6 6 5 5 4 4 4 4 4 4 3 3 3 3 3 1 1 3 4 2 2 2 3 2 2 2 2 1 2 1 2 3 2 3
7 8 8 9 8 8 7 7 9 12 14 15 12 9 12 12 12 12 12 12 14 13 12 11 11 11 12 11 11 9 8 7 8 7 7 6 6 6 7 7 8 8 7 8 7 7 7 7 7 7 6 6 6 6 5 5 5 5 4 4 5 4 3 3 3 3 1 4 3 3 3 2 2 2 2 2 1 1 1 1 1 3 3 2 0
7 6 5 5 7 8 8 8 10 12 12 11 6 2 6 11 12 11 12 13 13 13 12 11 11 11 12 11 11 10 9 9 10 8 9 8 7 7 7 8 9 7 7 7 7 8 7 7 7 7 6 6 7 7 6 6 6 6 6 4 4 5 5 4 3 2 3 3 3 2 1 0 0 2 2 1 0 1 1 2 3 2 3 2 1
1 1 4 4 4 5 5 6 7 7 7 8 10 8 8 6 10 11 13 14 13 11 11 11 11 12 12 11 11 11 11 11 10 9 10 9 9 8 8 9 9 8 8 8 8 8 6 7 8 7 7 7 7 6 6 6 7 6 5 5 4 4 4 4 4 4 4 3 3 2 1 1 0 2 2 1 0 1 2 2 2 2 3 2 2
1 1 2 4 4 5 7 7 7 7 6 7 12 16 14 9 8 11 12 13 12 11 11 12 12 12 12 12 12 11 12 12 11 10 11 11 10 9 9 9 9 8 9 9 8 8 7 7 8 8 8 7 8 8 7 6 6 6 6 6 5 4 4 3 4 5 5 4 3 3 2 1 1 2 1 1 1 2 2 2 2 2 2 1 1
3 3 3 5 7 7 6 6 5 6 6 7 9 12 14 11 9 9 11 11 11 9 11 13 12 11 12 13 12 11 13 13 13 12 12 11 11 10 10 9 10 10 9 9 8 8 8 8 8 8 8 8 8 8 8 7 7 6 5 5 5 5 4 4 4 4 4 3 3 3 2 2 2 3 2 1 0 1 1 2 2 1 1 1 2
5 5 4 5 6 8 7 7 7 7 6 6 7 9 9 9 7 6 7 8 5 12 12 8 4 4 10 13 12 12 12 12 12 12 12 11 10 11 10 10 10 10 9 7 5 3 4 7 8 7 8 8 7 7 7 6 6 6 6 6 5 4 5 4 3 4 3 3 3 2 2 2 3 2 2 2 2 3 2 2 2 1 0 4 4
3 3 5 7 7 6 6 6 5 5 5 5 4 5 6 6 6 5 7 4 3 10 6 6 7 5 6 8 12 12 12 12 12 12 12 12 11 9 9 9 9 10 10 11 12 11 10 9 7 8 8 7 7 7 6 6 5 6 6 6 6 6 6 5 4 3 3 3 3 3 3 3 3 3 3 3 3 2 2 3 3 2 2 5 6
6 7 5 3 4 4 4 4 4 4 5 5 4 4 3 3 2 11 10 4 2 5 7 7 10 13 14 9 6 6 7 10 13 13 12 12 11 10 7 8 8 9 9 11 12 14 15 15 9 8 8 8 8 8 7 7 6 6 6 7 6 7 7 6 5 4 4 4 4 4 3 3 6 10 12 9 7 5 2 5 4 3 6 7 8
7 6 4 3 2 1 1 2 2 4 4 3 4 4 4 3 9 14 13 13 14 15 14 11 9 10 11 8 7 8 9 9 11 13 13 12 11 10 9 8 9 10 10 9 9 10 10 8 7 6 7 7 7 6 8 13 10 8 7 6 6 6 6 7 7 6 5 4 4 4 6 15 14 14 14 14 13 11 10 7 5 5 6 7 7
5 4 4 4 1 1 0 1 1 1 3 3 2 2 1 5 9 12 13 13 12 10 10 11 10 9 9 11 10 8 8 9 10 11 11 11 11 10 10 9 9 10 11 9 9 10 8 8 9 9 8 7 6 6 12 14 14 14 9 8 8 7 6 7 7 7 7 6 7 7 7 11 12 13 13 15 13 15 16 16 16 13 9 6 8
5 4 3 2 2 2 2 3 2 1 2 2 0 2 2 3 4 7 9 9 11 11 11 12 11 10 9 10 9 6 4 5 3 3 3 2 5 7 7 9 9 10 9 8 8 9 9 9 9 9 9 8 6 7 13 15 15 14 12 9 8 8 7 7 7 7 7 7 7 7 7 6 7 9 8 10 14 18 17 19 19 18 17 16 12
4 4 4 4 4 3 2 1 1 0 3 9 9 7 8 9 9 5 2 4 6 6 6 7 9 10 11 11 9 7 5 6 7 7 7 6 2 2 5 6 7 7 8 8 7 8 9 10 11 11 9 8 7 9 13 15 15 15 15 11 8 8 8 8 7 8 8 7 7 7 7 5 6 13 8 7 8 12 19 22 22 22 21 18 15
4 4 5 4 1 0 1 3 5 7 7 1 4 4 4 3 4 5 5 7 5 4 7 9 8 5 3 2 1 3 8 7 4 3 6 7 7 3 2 2 4 5 7 8 8 10 10 11 11 11 10 8 8 9 13 15 16 16 15 11 8 8 8 8 8 8 7 7 7 7 8 7 6 6 7 9 9 9 9 10 10 9 10 15 17
4 4 3 3 2 1 6 6 5 7 7 6 2 4 7 8 9 9 10 10 7 5 6 7 7 3 3 3 3 6 7 5 3 5 5 5 4 2 2 4 6 9 10 10 11 10 10 10 10 10 10 9 7 13 14 16 16 16 15 12 8 8 8 7 7 7 7 7 7 7 8 8 7 7 6 9 10 9 9 9 10 10 10 9 8
5 6 4 3 3 3 6 5 3 5 5 5 7 7 10 11 8 9 8 7 5 3 3 5 4 3 6 4 5 9 8 7 7 4 4 5 7 9 8 5 3 3 3 7 8 10 11 9 9 10 9 8 7 12 14 17 17 17 17 9 9 9 9 8 8 7 7 7 7 8 9 9 8 8 10 14 12 10 10 10 10 9 8 8 8
4 6 5 3 4 6 7 4 3 4 5 3 4 4 5 4 3 1 3 3 2 0 0 2 3 1 2 7 6 9 7 9 7 8 8 6 6 6 6 5 6 6 7 8 9 8 8 10 10 9 10 9 8 10 16 18 18 18 13 9 9 9 9 9 8 8 8 8 8 8 9 9 8 8 11 12 13 12 9 10 9 9 7 7 7
6 3 5 6 5 6 6 6 5 3 2 2 3 8 1 3 1 1 2 3 4 4 3 3 3 1 2 6 9 10 10 8 7 8 8 7 7 6 6 4 4 8 9 7 6 7 7 8 10 10 10 12 9 12 17 18 18 17 15 12 11 11 10 10 9 7 7 7 9 15 10 9 9 9 11 12 11 9 8 7 8 8 8 8 6
8 9 7 6 5 5 5 4 4 4 5 6 6 3 5 2 2 3 1 2 4 5 5 3 3 4 4 5 6 7 8 8 9 9 8 8 8 8 3 3 2 1 2 5 6 7 5 5 7 10 14 14 12 12 17 18 18 18 15 11 11 11 11 10 10 9 7 6 6 8 11 9 8 9 10 10 11 9 7 5 5 6 7 8 6
7 5 6 7 5 5 3 3 2 4 2 2 1 1 3 3 2 2 3 2 2 4 5 5 5 5 6 7 8 8 8 5 3 3 3 4 4 4 7 9 8 6 5 4 6 6 9 6 5 9 12 13 14 11 14 19 17 17 16 12 11 12 12 11 10 10 9 7 7 7 8 11 12 12 12 12 11 9 6 5 5 7 9 10 7
8 8 7 6 4 4 5 3 3 2 1 1 2 3 3 3 3 3 3 2 3 5 4 3 2 1 2 3 2 1 3 5 4 3 2 1 3 6 6 7 9 9 10 9 11 10 10 10 9 8 8 9 12 14 13 18 17 17 17 14 10 12 12 11 10 10 9 9 8 7 6 12 15 15 15 15 14 12 9 7 7 7 7 8 8
7 9 7 6 5 5 3 2 1 2 2 2 3 3 3 3 4 5 4 4 3 4 3 3 3 2 2 2 3 6 6 5 4 4 4 4 2 2 3 2 6 7 9 9 8 9 10 11 10 9 10 9 11 17 12 15 17 17 17 17 9 9 12 14 12 10 9 9 9 9 8 12 16 16 16 16 16 15 14 9 9 12 14 14 9
7 6 5 7 6 4 3 2 1 2 3 2 3 4 3 3 5 4 4 4 5 4 4 4 3 3 4 4 5 6 5 4 4 5 6 5 4 6 5 5 6 7 7 6 4 3 6 9 8 8 8 11 11 11 17 14 16 17 17 17 15 12 14 12 13 11 10 9 8 9 10 16 17 17 17 17 16 16 11 9 14 15 14 14 11
6 7 6 6 6 3 2 1 0 1 3 3 3 5 4 5 4 3 4 5 5 4 4 4 3 3 4 4 5 5 5 5 5 6 7 7 7 7 7 5 6 6 6 6 6 5 4 4 11 11 11 9 10 9 12 14 14 18 18 19 17 15 14 11 11 11 10 10 10 9 11 18 18 18 17 16 16 14 11 15 15 15 14 11 7
8 6 6 5 7 6 3 2 0 1 3 3 3 5 6 6 4 4 5 5 5 5 5 4 3 3 3 3 4 4 4 4 4 6 8 7 7 7 7 5 6 7 7 6 2 6 7 7 5 13 14 12 9 10 9 12 16 17 18 18 18 18 17 18 13 9 9 9 13 16 18 19 18 18 18 17 14 15 16 15 15 14 11 7 7
7 6 6 6 5 5 4 4 2 1 3 3 3 6 7 5 4 4 5 5 5 5 5 5 4 3 3 3 5 5 4 4 4 4 6 7 8 8 8 7 7 7 6 5 6 5 10 11 3 11 13 12 11 11 10 10 11 12 13 18 19 18 17 17 15 13 16 19 18 18 20 19 17 14 12 9 8 10 14 15 14 11 6 6 6
8 7 8 7 6 6 5 4 3 1 3 3 4 3 5 5 5 5 5 5 4 5 5 5 5 4 3 3 4 3 4 4 4 4 4 5 6 8 9 8 7 8 7 6 7 8 9 8 8 13 11 10 11 10 10 10 9 10 10 12 14 13 16 16 12 11 12 12 14 12 11 12 13 16 16 14 13 12 10 9 7 6 6 6 6
8 7 7 7 6 6 6 4 4 2 3 3 4 4 4 4 4 4 5 5 4 3 4 5 6 4 3 3 4 8 6 4 5 4 4 5 5 5 7 7 7 8 9 7 7 6 7 8 11 11 10 10 10 9 9 10 10 10 10 10 10 10 10 10 11 10 10 10 9 11 13 10 10 10 9 7 7 7 7 7 6 6 6 5 8
8 6 7 8 7 6 5 5 4 3 3 4 4 3 3 3 4 5 6 5 5 5 5 6 6 4 3 2 3 4 4 5 5 6 6 5 4 5 6 6 4 4 6 9 9 7 7 6 8 11 12 10 9 10 8 8 10 11 12 12 11 10 10 9 11 14 10 8 8 9 9 9 9 9 8 7 7 7 6 6 7 7 6 6 6
6 6 6 6 5 7 6 5 3 3 3 3 3 3 3 4 5 6 6 6 5 5 5 5 4 4 4 4 4 4 5 5 5 5 5 6 9 10 8 5 6 7 12 9 7 7 8 8 8 5 4 10 12 10 13 16 15 15 15 15 15 15 14 12 13 14 10 10 8 9 8 8 8 8 8 7 7 6 6 6 6 6 7 6 5
7 7 6 6 6 6 6 5 4 3 3 3 3 3 4 4 6 6 6 6 5 5 5 5 5 4 4 4 4 4 5 5 5 5 5 6 6 9 15 14 8 7 10 13 14 13 11 8 8 9 8 12 13 16 17 16 16 15 15 16 15 15 16 16 14 11 7 8 8 8 8 7 7 7 7 7 6 6 6 6 6 6 6 6 5
Wind_Direction
174 164 161 160 165 168 168 158 152 154 158 155 149 154 159 163 160 164 162 156 155 156 163 158 155 144 130 175 202 215 210 203 223 226 239 240 239 213 175 171 194 179 151 126 41 14 37 23 40 45 45 79 71 24 348 2 7 17 15 5 24 11 337 6 27 72 38 4 3 2 352 344 348 61 59 29 10 0 359 54 223 201 206 219 225
173 153 159 160 161 161 164 161 148 148 163 162 161 159 157 159 165 166 158 159 165 168 169 170 181 177 163 180 182 198 191 188 215 230 226 232 222 210 184 166 181 180 182 171 89 58 5 21 48 54 50 57 70 25 5 350 3 8 22 360 14 33 342 359 337 66 20 84 30 332 347 335 351 15 33 360 356 2 343 329 296 222 215 219 231
175 156 161 165 161 155 161 161 156 152 160 167 164 153 157 160 163 164 165 162 171 172 169 176 178 167 160 180 189 198 198 188 195 219 213 222 201 200 186 166 176 180 182 183 171 17 81 76 109 94 48 31 29 1 2 345 352 1 15 35 336 338 344 338 5 68 151 136 109 75 344 16 331 358 336 351 341 347 344 355 337 10 263 235 173
175 160 167 168 162 152 153 157 155 147 152 160 164 162 164 163 162 164 167 165 169 178 174 176 168 163 170 186 196 194 175 169 192 217 222 198 190 189 188 164 177 176 183 176 176 104 109 152 183 102 69 73 101 345 338 320 331 326 337 65 113 10 5 312 18 33 102 85 5 69 202 119 359 317 316 298 321 324 341 346 340 13 317 5 116
168 165 164 166 158 156 159 158 155 154 156 162 164 168 174 171 168 167 167 168 172 178 176 164 154 164 182 200 202 216 247 145 181 204 195 182 177 174 195 174 178 176 178 176 197 202 161 152 160 128 165 128 121 24 314 280 280 278 268 212 103 126 10 327 322 16 18 82 143 75 6 25 223 247 339 293 350 345 338 341 356 359 9 22 38
168 169 163 162 155 155 154 159 159 160 161 164 165 171 167 170 165 163 167 170 173 178 172 168 167 171 172 178 193 193 189 170 186 178 175 170 184 190 179 181 175 174 175 186 198 182 167 194 137 118 20 323 171 230 258 309 322 298 266 200 144 192 129 48 351 345 18 22 66 169 166 168 240 274 75 304 323 278 305 340 10 6 27 27 18
172 168 154 159 153 152 159 164 165 165 166 163 164 167 168 170 168 168 172 177 175 173 171 173 170 176 188 188 194 188 173 205 189 174 171 176 173 174 182 186 175 170 188 188 198 185 180 178 141 145 244 266 266 197 272 283 277 290 186 108 154 117 90 75 36 309 345 0 9 11 17 1 143 109 249 82 343 320 339 349 346 353 18 36 23
168 171 164 162 159 156 165 167 168 168 163 165 167 164 167 172 170 171 174 177 181 169 176 177 176 178 188 204 198 190 173 190 180 179 165 175 167 174 171 181 186 180 183 199 194 184 186 184 163 172 181 275 245 243 246 266 298 350 229 133 144 112 109 119 24 1 88 290 322 352 360 336 239 42 137 176 196 268 311 328 302 349 4 48 27
170 171 166 163 164 159 163 168 169 166 164 167 170 167 168 171 170 171 175 179 182 171 178 184 181 175 185 193 215 206 181 190 182 163 161 190 167 169 169 182 191 194 190 188 197 187 193 182 175 195 219 254 276 271 257 228 218 185 198 125 143 140 147 160 132 166 112 329 352 335 359 10 19 73 183 122 145 176 287 280 305 324 343 28 38
187 167 168 165 166 164 165 164 166 171 171 168 163 163 167 167 171 173 180 181 180 175 180 183 181 170 179 198 209 220 206 199 166 161 167 186 178 175 177 183 195 192 205 193 192 190 183 176 175 189 217 234 252 250 251 263 156 169 193 161 161 153 166 153 157 183 155 131 135 231 15 344 20 9 5 350 8 140 215 270 281 326 5 333 19
190 169 172 165 169 167 159 168 168 169 169 167 161 165 165 169 173 176 182 179 177 180 180 187 181 176 186 193 204 209 215 186 201 206 179 178 188 184 180 194 193 196 197 198 194 187 184 182 182 203 214 226 244 244 214 209 214 194 219 144 155 162 189 147 128 126 101 47 45 178 201 177 162 166 253 236 174 210 5 309 306 274 260 5 20
175 171 171 167 165 168 166 169 169 167 162 165 166 164 167 170 173 175 179 179 177 181 184 188 187 188 188 191 200 204 204 195 192 216 189 187 191 186 193 184 204 204 195 187 195 192 184 192 195 203 220 228 236 228 238 210 178 183 196 175 192 193 190 119 100 26 25 41 32 42 131 145 143 176 210 177 180 212 169 244 252 305 7 306 133
160 168 169 169 168 169 171 174 164 164 160 166 167 167 168 170 172 174 182 181 178 178 187 189 189 193 193 195 198 196 201 201 192 216 190 184 186 184 174 190 202 201 209 192 200 191 184 192 200 199 223 228 232 233 221 176 151 161 152 138 160 172 188 173 140 78 107 95 189 227 220 168 195 227 190 199 213 180 163 200 271 163 181 289 253
73 30 185 173 171 172 172 177 167 162 163 165 166 166 168 172 175 178 182 182 179 178 184 190 196 196 194 197 200 193 200 200 196 204 206 182 178 183 181 186 191 197 194 203 199 193 187 195 199 207 212 218 221 216 196 180 155 170 163 145 199 216 161 119 122 122 139 135 167 175 231 219 241 233 224 195 207 138 187 193 219 343 41 272 300
106 106 331 316 218 174 172 177 169 162 165 166 168 169 169 169 174 178 176 184 183 182 182 189 197 198 196 197 201 197 202 202 199 199 197 181 175 177 183 182 185 193 190 202 203 203 201 195 200 209 210 212 212 199 185 158 156 139 157 176 328 69 111 118 130 165 126 343 358 244 242 272 271 264 261 247 239 235 199 183 138 347 335 4 336
141 151 187 217 265 234 169 174 162 162 166 169 169 168 171 174 175 178 177 181 185 185 185 188 194 196 196 197 200 198 205 206 204 202 203 186 172 170 182 183 187 182 189 190 206 202 207 205 208 213 212 204 205 186 180 176 177 165 175 169 79 133 141 146 170 177 177 185 269 272 318 284 282 287 307 315 346 298 211 175 142 129 143 290 328
152 167 177 198 220 220 168 153 154 163 166 171 172 173 174 172 175 177 178 179 185 188 187 187 190 195 203 200 199 196 201 208 205 202 204 196 178 174 172 190 191 185 192 191 199 206 207 208 208 213 208 205 199 192 180 178 175 196 206 164 163 163 153 173 180 177 207 210 249 237 240 253 269 318 19 46 32 39 55 131 164 158 160 149 215
170 171 178 188 204 185 167 166 158 167 169 169 173 176 174 175 177 177 176 181 187 187 190 191 189 196 205 207 208 203 202 208 204 198 199 198 192 189 180 183 203 204 201 202 193 204 205 206 205 208 202 198 196 191 187 187 175 198 193 175 173 152 148 159 127 104 272 240 269 304 311 343 357 51 65 50 55 13 28 19 154 139 142 160 181
186 179 170 170 174 174 173 167 142 155 177 172 172 174 174 179 181 180 182 186 184 186 190 193 194 197 201 207 210 209 204 200 194 194 191 196 195 193 200 202 204 214 210 205 204 210 203 203 199 201 195 193 191 190 194 189 184 179 169 165 167 154 142 158 235 143 210 233 273 344 21 47 23 47 46 30 11 14 29 39 23 36 46 119 162
187 179 178 176 170 168 174 170 160 161 113 342 179 178 177 179 181 186 188 185 183 184 185 192 196 200 202 200 207 209 204 201 191 184 192 196 196 196 207 210 210 207 212 206 203 205 201 198 196 197 190 190 188 193 188 189 183 178 175 168 175 144 147 170 173 214 216 281 2 78 52 33 15 40 42 24 10 33 98 78 54 67 70 81 114
189 182 179 175 171 174 170 169 161 152 157 197 199 190 181 180 183 185 184 185 189 189 186 191 190 198 202 202 205 203 202 201 200 191 194 198 192 199 207 214 213 213 207 199 194 196 194 190 188 189 188 189 193 195 192 180 176 173 180 175 165 164 170 185 176 198 256 82 72 72 44 8 2 68 65 34 18 21 56 62 82 93 91 76 104
189 188 181 176 174 181 175 158 154 166 171 191 200 180 181 186 185 185 185 187 189 191 191 189 190 194 199 202 204 206 204 201 204 204 201 204 204 199 205 208 209 216 207 201 193 185 189 186 183 188 193 190 196 194 187 174 172 175 179 172 170 166 166 173 174 191 110 68 98 95 46 11 9 104 87 60 14 15 12 50 99 115 108 79 76
176 173 183 180 177 177 177 170 169 178 180 176 154 197 198 190 185 186 186 191 191 192 191 188 190 191 199 201 200 202 205 204 205 210 212 211 214 213 207 209 207 207 205 199 195 191 188 188 186 189 193 194 194 195 186 180 180 180 180 179 173 174 170 171 183 172 96 114 97 112 117 304 20 88 106 95 325 353 15 89 90 100 121 123 74
312 192 159 190 192 179 168 176 179 181 176 164 152 186 249 216 196 189 192 192 192 191 189 189 190 192 197 201 200 201 202 204 208 210 214 215 215 218 210 211 210 202 205 205 198 194 186 186 189 190 193 193 194 194 188 186 183 181 180 177 174 179 176 178 175 134 126 121 146 139 181 237 171 127 145 141 334 25 69 100 119 130 140 150 156
155 291 215 183 195 192 192 187 189 192 184 168 169 184 214 216 198 195 196 194 194 190 188 188 189 194 196 200 203 202 202 203 206 210 214 215 216 215 216 215 213 208 203 202 201 197 191 186 188 187 191 189 190 189 185 187 183 180 178 172 169 167 173 169 145 140 140 152 152 147 166 196 169 132 112 71 36 76 106 124 138 160 149 169 144
190 223 188 191 193 193 192 191 193 196 194 181 187 197 200 202 197 192 194 195 199 196 192 185 187 194 198 200 203 203 204 204 205 208 212 216 217 216 214 214 212 210 200 195 194 198 192 193 194 185 182 185 183 183 185 183 180 173 168 165 159 160 160 142 135 130 147 151 144 153 172 165 150 134 125 124 76 84 73 50 25 5 202 153 114
208 212 199 186 177 187 192 194 193 196 198 195 192 200 209 207 197 178 157 157 132 52 35 21 333 227 204 203 203 202 202 204 205 207 208 213 217 219 213 208 203 202 191 161 211 182 264 208 197 181 184 182 179 180 180 176 168 164 162 159 148 131 122 121 121 134 140 141 135 133 122 110 118 134 127 83 54 45 61 43 17 340 342 147 117
245 214 200 191 188 186 194 199 197 205 211 214 216 212 214 212 203 95 108 158 85 62 77 136 154 200 262 235 211 201 200 201 203 206 208 209 213 217 216 205 191 189 184 178 187 197 206 235 199 181 182 176 174 176 172 168 166 164 158 149 137 130 125 120 127 131 133 131 122 111 106 103 96 81 82 68 67 87 64 62 20 42 85 112 103
211 214 211 189 176 183 182 192 205 201 208 220 225 233 234 246 44 71 82 100 111 148 176 192 191 201 206 200 210 225 214 203 200 202 205 209 211 213 210 205 197 194 191 190 188 194 190 207 189 181 176 174 175 175 171 165 158 156 149 140 135 133 131 128 126 121 118 120 119 115 114 111 101 91 87 87 89 85 81 79 43 58 90 96 99
203 207 214 222 212 185 159 147 165 182 185 185 203 211 204 175 98 116 137 166 188 197 192 194 201 201 205 207 202 201 204 209 205 200 203 206 210 214 206 204 203 199 197 190 192 192 191 174 166 172 169 169 177 175 173 168 160 153 143 134 130 132 133 135 131 124 120 122 120 114 109 104 94 92 90 89 89 85 83 84 75 61 89 94 94
200 201 219 232 276 333 306 263 239 206 194 180 198 207 93 88 131 140 154 175 189 200 198 202 207 198 199 205 204 206 199 201 204 202 202 204 209 212 210 203 203 205 201 196 190 194 182 174 167 164 166 166 168 176 168 160 153 143 137 140 139 137 137 136 134 133 129 112 92 88 90 93 92 86 84 83 83 88 85 84 83 81 77 93 112
200 211 231 248 236 245 245 242 229 239 225 234 314 11 78 120 143 163 177 180 189 200 201 199 200 201 203 202 204 192 189 191 155 104 51 309 226 192 205 198 198 201 209 197 189 187 173 167 162 162 161 159 162 167 161 158 149 145 142 140 141 142 144 141 138 131 124 117 109 101 92 87 87 88 84 87 88 86 84 83 82 81 80 75 68
198 200 224 236 230 218 211 223 223 163 20 31 44 30 4 334 310 306 304 229 239 236 230 222 208 201 197 198 195 179 122 97 125 147 138 113 30 279 179 181 186 192 185 186 177 166 165 161 158 159 158 155 153 168 162 153 148 144 142 137 139 141 140 140 135 131 127 124 122 112 98 79 85 93 85 83 85 86 85 85 84 83 80 76 73
187 198 212 231 233 86 79 53 55 78 84 155 107 143 187 203 238 271 353 1 352 1 338 328 330 319 314 297 278 106 95 98 99 145 156 151 169 181 293 178 154 156 162 162 164 162 161 162 163 160 155 156 156 171 158 148 144 142 140 136 135 134 133 133 133 130 127 125 124 119 111 100 91 88 94 95 89 85 83 79 76 76 80 83 82
166 188 217 216 207 100 68 75 95 106 125 137 168 199 179 199 197 189 169 162 179 169 193 213 219 228 15 18 47 93 124 100 140 184 195 181 125 122 211 232 179 166 161 159 159 159 164 163 159 152 150 156 166 163 158 147 142 138 133 128 126 123 121 120 118 115 116 118 114 112 107 110 108 102 106 108 102 100 95 91 89 85 82 80 75
167 175 191 183 181 118 115 127 138 119 125 161 184 191 188 208 204 202 187 158 163 151 206 232 220 145 124 100 120 136 141 174 192 197 206 188 174 183 186 205 180 152 142 145 150 154 156 155 152 150 145 146 151 160 149 140 135 130 126 120 118 116 113 109 105 108 110 106 106 107 110 112 114 112 112 107 108 107 102 100 95 90 84 76 71
146 164 177 145 111 120 127 130 135 135 152 160 211 216 214 210 241 257 60 66 69 3 239 289 309 34 124 136 142 156 178 204 192 195 207 200 197 203 189 183 174 166 158 162 155 155 151 147 148 148 142 139 144 156 143 136 131 126 118 117 115 109 108 106 105 111 110 112 116 120 122 121 116 115 111 105 106 105 102 101 101 98 95 91 84
130 126 121 142 140 114 122 138 150 162 132 162 212 226 198 41 265 194 164 152 162 188 195 193 203 189 154 159 165 175 185 195 202 199 199 207 207 206 203 182 185 165 160 155 142 135 144 149 147 149 150 142 143 153 140 134 131 131 129 127 124 119 117 113 108 101 109 115 125 125 117 117 117 116 115 108 104 101 99 100 103 106 100 92 83
136 144 147 130 122 125 133 136 150 173 189 191 215 232 58 60 13 335 319 162 138 128 125 137 145 151 130 129 160 187 194 196 206 213 203 192 199 204 167 126 146 287 110 126 136 134 129 135 149 146 147 138 141 150 142 137 134 132 129 127 125 123 120 119 115 100 82 85 88 98 103 104 108 115 113 111 108 105 101 107 113 108 100 88 87
118 108 113 117 124 122 110 103 149 213 193 161 125 77 95 113 115 24 356 7 44 88 98 108 123 139 152 161 178 194 203 199 207 222 225 186 162 158 164 169 172 172 165 165 133 147 147 151 159 150 150 146 142 147 143 136 135 131 128 128 129 127 127 123 118 116 106 84 82 84 86 105 110 110 100 93 91 94 106 109 109 101 103 101 109
121 117 114 117 132 140 144 158 195 189 117 88 78 73 83 93 92 92 85 42 35 40 56 62 71 92 127 148 178 192 59 61 70 99 77 103 176 178 173 172 171 173 171 173 169 166 156 156 154 155 145 145 143 139 137 132 129 130 129 128 135 127 125 121 116 107 106 109 100 89 90 101 101 100 99 94 89 87 91 88 88 96 101 110 103
113 125 129 126 126 123 128 136 172 183 142 131 119 112 99 78 107 119 130 103 86 70 59 55 51 52 52 58 59 67 79 84 83 89 86 77 57 112 140 123 145 157 169 169 168 166 162 156 151 146 142 131 138 130 128 124 123 120 120 115 113 123 127 122 114 112 112 108 115 118 114 110 106 103 99 95 89 84 82 81 92 102 102 98 96
113 104 116 121 113 113 114 130 141 148 143 137 126 128 129 130 128 138 125 109 100 81 71 57 46 43 36 36 43 62 80 93 90 84 91 79 71 77 79 90 87 86 85 73 63 98 151 151 135 131 123 124 119 124 124 123 120 117 114 112 119 121 122 117 120 119 117 117 114 112 119 114 106 101 97 94 91 86 79 88 88 83 84 85 86
95 118 125 118 113 113 119 94 346 146 135 147 143 132 130 131 136 127 111 111 104 100 92 82 68 41 32 34 42 51 62 76 88 89 85 88 87 93 93 90 90 96 97 99 89 50 50 132 143 128 118 101 106 106 111 111 116 116 114 115 117 118 115 111 110 114 117 118 121 122 120 111 105 100 96 93 91 91 94 89 86 86 83 81 82
126 132 131 126 137 140 135 114 107 122 138 149 159 142 142 140 148 125 124 122 120 116 110 110 97 85 60 56 59 65 70 70 89 100 101 98 93 93 87 72 87 83 77 57 360 129 100 43 313 135 114 107 104 104 100 103 107 111 115 116 114 112 112 111 109 116 119 123 123 123 115 109 107 104 102 97 90 89 88 85 84 81 80 74 75
119 121 126 129 123 123 129 132 137 151 138 138 147 149 145 153 140 135 139 136 131 128 124 120 114 109 98 89 83 85 80 86 88 91 106 114 113 102 96 91 88 84 76 84 89 55 87 91 52 75 92 103 108 106 107 107 104 107 111 114 115 116 116 114 117 122 123 124 124 119 114 112 109 107 100 95 94 90 84 79 74 71 72 80 86
140 145 134 131 135 133 142 145 142 162 144 137 132 152 149 147 143 148 138 129 133 133 131 129 126 123 110 104 107 89 106 103 99 96 90 94 108 116 113 107 106 105 106 105 89 94 87 97 109 97 98 106 111 112 113 112 120 120 119 119 115 115 116 114 111 116 117 121 124 121 117 111 105 102 98 96 94 86 77 71 66 70 77 84 87
140 143 138 135 141 145 145 145 142 149 141 146 149 155 154 145 136 134 120 119 125 133 128 126 124 123 116 132 144 131 100 54 42 45 81 102 100 102 108 115 127 129 124 112 108 108 118 124 114 112 115 115 113 119 127 136 138 133 131 125 123 125 125 127 125 128 131 129 121 113 108 104 102 95 93 87 84 85 88 89 80 75 69 68 85
140 147 146 146 148 145 147 147 151 147 147 156 154 148 149 146 135 125 126 126 135 135 121 120 132 144 131 110 83 64 69 83 77 64 43 18 13 54 89 77 42 81 117 129 126 114 114 107 116 129 131 124 123 132 141 140 137 137 135 133 131 132 132 133 140 137 128 119 115 113 112 111 110 109 105 103 103 97 87 87 88 82 77 75 70
144 139 143 140 143 146 148 149 154 151 144 156 147 154 153 141 128 129 130 134 134 127 130 141 132 120 114 104 78 83 82 90 89 84 73 60 51 50 32 81 95 72 82 76 91 121 129 128 114 89 102 135 145 144 136 132 131 129 127 126 127 130 135 135 140 137 129 128 127 125 121 120 118 117 116 114 114 111 106 91 82 84 86 85 82
142 134 141 143 146 148 144 149 158 149 147 140 138 140 129 133 138 140 137 135 136 137 136 128 121 113 117 114 108 97 102 102 100 99 89 95 81 44 36 31 35 90 99 95 93 94 94 97 114 121 86 91 110 124 131 132 127 125 121 120 123 126 130 135 138 128 119 126 133 132 131 125 124 124 122 122 121 117 111 104 95 92 90 91 87